This demonstration page uses our WeatherBlox Daily Observations layout. Learn more.

Left ArrowRight Arrow

Hourly Observations for April 28, 2021

Temp ( °F °C ) Dew Point ( °F °C ) Humidity (%) Winds ( mph kmh ) Pressure ( in mb ) Visibility ( mi km ) Precip ( " mm )
12:59 am 00:59 Mostly Cloudy 69 20.6 52 11.1 55 55 SSW 13 20 30.04 1017 10 16 0.00 0.00
1:59 am 01:59 Partly Cloudy 68 20 54 12.2 61 61 SW 12 19 30.02 1017 10 16 0.00 0.00
2:59 am 02:59 Mostly Cloudy 67 19.4 55 12.8 66 66 SW 12 19 30.01 1016 10 16 0.00 0.00
3:59 am 03:59 Mostly Cloudy 66 18.9 56 13.3 70 70 SW 15 24 30.01 1016 10 16 0.00 0.00
4:59 am 04:59 Mostly Cloudy 66 18.9 57 13.9 73 73 SW 12 19 30.02 1017 10 16 0.00 0.00
5:59 am 05:59 Mostly Cloudy 66 18.9 57 13.9 73 73 SW 13 20 30.02 1017 10 16 0.00 0.00
6:59 am 06:59 Sunny 67 19.4 58 14.4 73 73 SW 10 17 30.04 1017 10 16 0.00 0.00
7:59 am 07:59 Mostly Cloudy 67 19.4 58 14.4 73 73 WSW 13 20 30.05 1018 10 16 0.00 0.00
8:59 am 08:59 Mostly Cloudy 69 20.6 58 14.4 68 68 WSW 14 22 30.04 1017 10 16 0.00 0.00
9:59 am 09:59 Sunny 71 21.7 59 15 66 66 WSW 8 13 30.02 1017 10 16 0.00 0.00
10:59 am 10:59 Partly Cloudy 74 23.3 60 15.6 62 62 WSW 12 19 30.03 1017 10 16 0.00 0.00
11:59 am 11:59 Mostly Cloudy 76 24.4 60 15.6 58 58 WSW 14 22 30.01 1016 10 16 0.00 0.00
12:59 pm 12:59 Mostly Cloudy 80 26.7 61 16.1 52 52 WSW 10 17 29.99 1016 10 16 0.00 0.00
1:59 pm 13:59 Partly Cloudy 83 28.3 62 16.7 49 49 W 9 15 29.98 1015 10 16 0.00 0.00
2:59 pm 14:59 Partly Cloudy 85 29.4 61 16.1 45 45 SW 14 22 29.94 1014 10 16 0.00 0.00
3:59 pm 15:59 Partly Cloudy 86 30 59 15 40 40 SW 14 22 29.92 1013 10 16 0.00 0.00
4:59 pm 16:59 Mostly Cloudy 86 30 58 14.4 39 39 SW 14 22 29.90 1013 10 16 0.00 0.00
5:59 pm 17:59 Mostly Cloudy 86 30 58 14.4 39 39 SW 10 17 29.90 1013 10 16 0.00 0.00
6:59 pm 18:59 Mostly Cloudy 83 28.3 58 14.4 43 43 SW 14 22 29.90 1013 10 16 0.00 0.00
7:59 pm 19:59 Partly Cloudy 80 26.7 58 14.4 47 47 SW 8 13 29.91 1013 10 16 0.00 0.00
8:59 pm 20:59 Partly Cloudy 78 25.6 58 14.4 50 50 SW 9 15 29.93 1013 10 16 0.00 0.00
9:59 pm 21:59 Partly Cloudy 78 25.6 58 14.4 50 50 SW 10 17 29.93 1014 10 16 0.00 0.00
10:59 pm 22:59 Mostly Clear 76 24.4 58 14.4 54 54 SSW 8 13 29.93 1014 10 16 0.00 0.00
11:59 pm 23:59 Mostly Clear 74 23.3 59 15 60 60 S 10 17 29.94 1014 10 16 0.00 0.00

Powered by AerisWeather